Year,Month,Day,Hour,Minute,Value (Times are PST for windgust in km/hr)
2020,01,13,00,00,19.30
2020,01,13,00,01,16.10
2020,01,13,00,02,16.10
2020,01,13,00,03,19.30
2020,01,13,00,04,16.10
2020,01,13,00,05,16.10
2020,01,13,00,06,17.70
2020,01,13,00,07,16.10
2020,01,13,00,08,14.50
2020,01,13,00,09,14.50
2020,01,13,00,10,19.30
2020,01,13,00,11,12.90
2020,01,13,00,12,14.50
2020,01,13,00,13,16.10
2020,01,13,00,14,19.30
2020,01,13,00,15,19.30
2020,01,13,00,16,17.70
2020,01,13,00,17,16.10
2020,01,13,00,18,12.90
2020,01,13,00,19,14.50
2020,01,13,00,20,14.50
2020,01,13,00,21,16.10
2020,01,13,00,22,14.50
2020,01,13,00,23,8.10
2020,01,13,00,24,1.60
2020,01,13,00,25,9.60
2020,01,13,00,26,8.10
2020,01,13,00,27,11.30
2020,01,13,00,28,6.40
2020,01,13,00,29,9.60
2020,01,13,00,30,14.50
2020,01,13,00,31,16.10
2020,01,13,00,32,17.70
2020,01,13,00,33,11.30
2020,01,13,00,34,11.30
2020,01,13,00,35,11.30
2020,01,13,00,36,9.60
2020,01,13,00,37,9.60
2020,01,13,00,38,16.10
2020,01,13,00,39,16.10
2020,01,13,00,40,9.60
2020,01,13,00,41,9.60
2020,01,13,00,42,9.60
2020,01,13,00,43,8.10
2020,01,13,00,44,8.10
2020,01,13,00,45,9.60
2020,01,13,00,46,14.50
2020,01,13,00,47,17.70
2020,01,13,00,48,14.50
2020,01,13,00,49,9.60
2020,01,13,00,50,14.50
2020,01,13,00,51,11.30
2020,01,13,00,52,11.30
2020,01,13,00,53,12.90
2020,01,13,00,54,9.60
2020,01,13,00,55,11.30
2020,01,13,00,56,20.90
2020,01,13,00,57,20.90
2020,01,13,00,58,9.60
2020,01,13,00,59,14.50
2020,01,13,01,00,14.50
2020,01,13,01,01,9.60
2020,01,13,01,02,14.50
2020,01,13,01,03,9.60
2020,01,13,01,04,11.30
2020,01,13,01,05,11.30
2020,01,13,01,06,19.30
2020,01,13,01,07,16.10
2020,01,13,01,08,11.30
2020,01,13,01,09,14.50
2020,01,13,01,10,11.30
2020,01,13,01,11,11.30
2020,01,13,01,12,11.30
2020,01,13,01,13,17.70
2020,01,13,01,14,17.70
2020,01,13,01,15,11.30
2020,01,13,01,16,11.30
2020,01,13,01,17,9.60
2020,01,13,01,18,14.50
2020,01,13,01,19,16.10
2020,01,13,01,20,11.30
2020,01,13,01,21,8.10
2020,01,13,01,22,8.10
2020,01,13,01,23,12.90
2020,01,13,01,24,9.60
2020,01,13,01,25,17.70
2020,01,13,01,26,11.30
2020,01,13,01,27,16.10
2020,01,13,01,28,11.30
2020,01,13,01,29,11.30
2020,01,13,01,30,11.30
2020,01,13,01,31,11.30
2020,01,13,01,32,14.50
2020,01,13,01,33,14.50
2020,01,13,01,34,14.50
2020,01,13,01,35,16.10
2020,01,13,01,36,11.30
2020,01,13,01,37,12.90
2020,01,13,01,38,11.30
2020,01,13,01,39,9.60
2020,01,13,01,40,9.60
2020,01,13,01,41,16.10
2020,01,13,01,42,12.90
2020,01,13,01,43,9.60
2020,01,13,01,44,9.60
2020,01,13,01,45,11.30
2020,01,13,01,46,9.60
2020,01,13,01,47,14.50
2020,01,13,01,48,12.90
2020,01,13,01,49,16.10
2020,01,13,01,50,16.10
2020,01,13,01,51,11.30
2020,01,13,01,52,14.50
2020,01,13,01,53,16.10
2020,01,13,01,54,9.60
2020,01,13,01,55,16.10
2020,01,13,01,56,14.50
2020,01,13,01,57,16.10
2020,01,13,01,58,11.30
2020,01,13,01,59,17.70
2020,01,13,02,00,16.10
2020,01,13,02,01,9.60
2020,01,13,02,02,17.70
2020,01,13,02,03,14.50
2020,01,13,02,04,14.50
2020,01,13,02,05,16.10
2020,01,13,02,06,16.10
2020,01,13,02,07,14.50
2020,01,13,02,08,17.70
2020,01,13,02,09,22.50
2020,01,13,02,10,16.10
2020,01,13,02,11,11.30
2020,01,13,02,12,12.90
2020,01,13,02,13,9.60
2020,01,13,02,14,16.10
2020,01,13,02,15,19.30
2020,01,13,02,16,14.50
2020,01,13,02,17,8.10
2020,01,13,02,18,8.10
2020,01,13,02,19,8.10
2020,01,13,02,20,11.30
2020,01,13,02,21,17.70
2020,01,13,02,22,9.60
2020,01,13,02,23,11.30
2020,01,13,02,24,12.90
2020,01,13,02,25,11.30
2020,01,13,02,26,11.30
2020,01,13,02,27,17.70
2020,01,13,02,28,16.10
2020,01,13,02,29,8.10
2020,01,13,02,30,9.60
2020,01,13,02,31,11.30
2020,01,13,02,32,11.30
2020,01,13,02,33,11.30
2020,01,13,02,34,14.50
2020,01,13,02,35,11.30
2020,01,13,02,36,11.30
2020,01,13,02,37,11.30
2020,01,13,02,38,9.60
2020,01,13,02,39,11.30
2020,01,13,02,40,4.80
2020,01,13,02,41,9.60
2020,01,13,02,42,8.10
2020,01,13,02,43,11.30
2020,01,13,02,44,12.90
2020,01,13,02,45,11.30
2020,01,13,02,46,9.60
2020,01,13,02,47,11.30
2020,01,13,02,48,9.60
2020,01,13,02,49,11.30
2020,01,13,02,50,16.10
2020,01,13,02,51,11.30
2020,01,13,02,52,11.30
2020,01,13,02,53,16.10
2020,01,13,02,54,9.60
2020,01,13,02,55,11.30
2020,01,13,02,56,8.10
2020,01,13,02,57,8.10
2020,01,13,02,58,6.40
2020,01,13,02,59,9.60
2020,01,13,03,00,8.10
2020,01,13,03,01,12.90
2020,01,13,03,02,16.10
2020,01,13,03,03,16.10
2020,01,13,03,04,11.30
2020,01,13,03,05,9.60
2020,01,13,03,06,9.60
2020,01,13,03,07,9.60
2020,01,13,03,08,11.30
2020,01,13,03,09,14.50
2020,01,13,03,10,11.30
2020,01,13,03,11,8.10
2020,01,13,03,12,12.90
2020,01,13,03,13,11.30
2020,01,13,03,14,9.60
2020,01,13,03,15,6.40
2020,01,13,03,16,12.90
2020,01,13,03,17,11.30
2020,01,13,03,18,11.30
2020,01,13,03,19,11.30
2020,01,13,03,20,11.30
2020,01,13,03,21,11.30
2020,01,13,03,22,11.30
2020,01,13,03,23,11.30
2020,01,13,03,24,14.50
2020,01,13,03,25,14.50
2020,01,13,03,26,12.90
2020,01,13,03,27,11.30
2020,01,13,03,28,14.50
2020,01,13,03,29,16.10
2020,01,13,03,30,11.30
2020,01,13,03,31,8.10
2020,01,13,03,32,9.60
2020,01,13,03,33,9.60
2020,01,13,03,34,9.60
2020,01,13,03,35,12.90
2020,01,13,03,36,14.50
2020,01,13,03,37,8.10
2020,01,13,03,38,8.10
2020,01,13,03,39,6.40
2020,01,13,03,40,11.30
2020,01,13,03,41,11.30
2020,01,13,03,42,12.90
2020,01,13,03,43,11.30
2020,01,13,03,44,11.30
2020,01,13,03,45,14.50
2020,01,13,03,46,11.30
2020,01,13,03,47,11.30
2020,01,13,03,48,12.90
2020,01,13,03,49,11.30
2020,01,13,03,50,8.10
2020,01,13,03,51,9.60
2020,01,13,03,52,8.10
2020,01,13,03,53,11.30
2020,01,13,03,54,11.30
2020,01,13,03,55,9.60
2020,01,13,03,56,11.30
2020,01,13,03,57,8.10
2020,01,13,03,58,11.30
2020,01,13,03,59,8.10
2020,01,13,04,00,8.10
2020,01,13,04,01,8.10
2020,01,13,04,02,8.10
2020,01,13,04,03,8.10
2020,01,13,04,04,8.10
2020,01,13,04,05,9.60
2020,01,13,04,06,14.50
2020,01,13,04,07,16.10
2020,01,13,04,08,14.50
2020,01,13,04,09,16.10
2020,01,13,04,10,11.30
2020,01,13,04,11,8.10
2020,01,13,04,12,9.60
2020,01,13,04,13,8.10
2020,01,13,04,14,8.10
2020,01,13,04,15,6.40
2020,01,13,04,18,14.50
2020,01,13,04,19,12.90
2020,01,13,04,20,11.30
2020,01,13,04,21,9.60
2020,01,13,04,22,8.10
2020,01,13,04,23,8.10
2020,01,13,04,24,12.90
2020,01,13,04,25,11.30
2020,01,13,04,26,9.60
2020,01,13,04,27,8.10
2020,01,13,04,28,11.30
2020,01,13,04,29,12.90
2020,01,13,04,30,9.60
2020,01,13,04,31,8.10
2020,01,13,04,32,8.10
2020,01,13,04,33,16.10
2020,01,13,04,34,16.10
2020,01,13,04,35,11.30
2020,01,13,04,36,11.30
2020,01,13,04,37,9.60
2020,01,13,04,38,14.50
2020,01,13,04,39,9.60
2020,01,13,04,40,8.10
2020,01,13,04,41,16.10
2020,01,13,04,42,12.90
2020,01,13,04,43,8.10
2020,01,13,04,44,9.60
2020,01,13,04,45,9.60
2020,01,13,04,46,8.10
2020,01,13,04,47,11.30
2020,01,13,04,48,14.50
2020,01,13,04,49,11.30
2020,01,13,04,50,9.60
2020,01,13,04,51,11.30
2020,01,13,04,52,9.60
2020,01,13,04,53,9.60
2020,01,13,04,54,6.40
2020,01,13,04,55,8.10
2020,01,13,04,56,8.10
2020,01,13,04,57,11.30
2020,01,13,04,58,9.60
2020,01,13,04,59,11.30
2020,01,13,05,00,16.10
2020,01,13,05,01,9.60
2020,01,13,05,02,14.50
2020,01,13,05,03,11.30
2020,01,13,05,04,16.10
2020,01,13,05,05,12.90
2020,01,13,05,06,9.60
2020,01,13,05,07,9.60
2020,01,13,05,08,11.30
2020,01,13,05,09,11.30
2020,01,13,05,10,11.30
2020,01,13,05,11,9.60
2020,01,13,05,12,12.90
2020,01,13,05,13,9.60
2020,01,13,05,14,11.30
2020,01,13,05,15,9.60
2020,01,13,05,16,11.30
2020,01,13,05,17,8.10
2020,01,13,05,18,11.30
2020,01,13,05,19,9.60
2020,01,13,05,20,8.10
2020,01,13,05,21,11.30
2020,01,13,05,22,11.30
2020,01,13,05,23,9.60
2020,01,13,05,24,11.30
2020,01,13,05,25,11.30
2020,01,13,05,26,11.30
2020,01,13,05,27,8.10
2020,01,13,05,28,8.10
2020,01,13,05,29,9.60
2020,01,13,05,30,8.10
2020,01,13,05,31,11.30
2020,01,13,05,32,11.30
2020,01,13,05,33,8.10
2020,01,13,05,34,11.30
2020,01,13,05,35,14.50
2020,01,13,05,36,9.60
2020,01,13,05,37,11.30
2020,01,13,05,38,11.30
2020,01,13,05,39,11.30
2020,01,13,05,40,6.40
2020,01,13,05,41,11.30
2020,01,13,05,42,11.30
2020,01,13,05,43,6.40
2020,01,13,05,44,9.60
2020,01,13,05,45,11.30
2020,01,13,05,46,9.60
2020,01,13,05,47,9.60
2020,01,13,05,48,8.10
2020,01,13,05,53,11.30
2020,01,13,05,54,8.10
2020,01,13,05,55,6.40
2020,01,13,05,56,8.10
2020,01,13,05,57,11.30
2020,01,13,05,58,9.60
2020,01,13,05,59,3.20
2020,01,13,06,03,9.60
2020,01,13,06,04,11.30
2020,01,13,06,05,9.60
2020,01,13,06,06,8.10
2020,01,13,06,07,9.60
2020,01,13,06,08,9.60
2020,01,13,06,09,8.10
2020,01,13,06,10,6.40
2020,01,13,06,11,9.60
2020,01,13,06,12,9.60
2020,01,13,06,13,8.10
2020,01,13,06,14,9.60
2020,01,13,06,15,16.10
2020,01,13,06,16,11.30
2020,01,13,06,17,8.10
2020,01,13,06,18,9.60
2020,01,13,06,19,8.10
2020,01,13,06,20,9.60
2020,01,13,06,21,6.40
2020,01,13,06,22,14.50
2020,01,13,06,23,11.30
2020,01,13,06,24,8.10
2020,01,13,06,25,8.10
2020,01,13,06,26,8.10
2020,01,13,06,29,14.50
2020,01,13,06,30,11.30
2020,01,13,06,31,11.30
2020,01,13,06,32,11.30
2020,01,13,06,33,11.30
2020,01,13,06,34,8.10
2020,01,13,06,35,6.40
2020,01,13,06,36,9.60
2020,01,13,06,37,8.10
2020,01,13,06,38,8.10
2020,01,13,06,39,9.60
2020,01,13,06,40,9.60
2020,01,13,06,41,9.60
2020,01,13,06,42,11.30
2020,01,13,06,43,6.40
2020,01,13,06,45,4.80
2020,01,13,06,46,8.10
2020,01,13,06,47,9.60
2020,01,13,06,48,9.60
2020,01,13,06,49,9.60
2020,01,13,06,50,1.60
2020,01,13,06,52,11.30
2020,01,13,06,53,1.60
2020,01,13,06,54,8.10
2020,01,13,06,55,8.10
2020,01,13,06,56,8.10
2020,01,13,06,57,4.80
2020,01,13,07,01,8.10
2020,01,13,07,02,8.10
2020,01,13,07,03,3.20
2020,01,13,07,07,8.10
2020,01,13,07,08,3.20
2020,01,13,07,13,1.60
2020,01,13,11,14,1.60
2020,01,13,11,17,4.80
2020,01,13,11,18,1.60
2020,01,13,11,24,4.80
2020,01,13,11,25,4.80
2020,01,13,11,26,4.80
2020,01,13,11,27,3.20
2020,01,13,11,29,9.60
2020,01,13,11,30,6.40
2020,01,13,11,31,3.20
2020,01,13,11,33,3.20
2020,01,13,11,34,3.20
2020,01,13,11,35,6.40
2020,01,13,11,36,6.40
2020,01,13,11,39,4.80
2020,01,13,11,40,3.20
2020,01,13,11,41,4.80
2020,01,13,11,42,3.20
2020,01,13,11,43,4.80
2020,01,13,11,44,8.10
2020,01,13,11,45,14.50
2020,01,13,11,46,8.10
2020,01,13,11,47,9.60
2020,01,13,11,48,6.40
2020,01,13,11,49,8.10
2020,01,13,11,50,4.80
2020,01,13,11,51,6.40
2020,01,13,11,52,11.30
2020,01,13,11,53,3.20
2020,01,13,11,55,6.40
2020,01,13,11,56,9.60
2020,01,13,11,57,6.40
2020,01,13,11,58,4.80
2020,01,13,11,59,9.60
2020,01,13,12,00,8.10
2020,01,13,12,01,9.60
2020,01,13,12,02,6.40
2020,01,13,12,03,9.60
2020,01,13,12,04,8.10
2020,01,13,12,05,8.10
2020,01,13,12,06,9.60
2020,01,13,12,07,6.40
2020,01,13,12,08,6.40
2020,01,13,12,09,3.20
2020,01,13,12,10,3.20
2020,01,13,12,11,6.40
2020,01,13,12,12,6.40
2020,01,13,12,13,3.20
2020,01,13,12,15,6.40
2020,01,13,12,16,6.40
2020,01,13,12,17,1.60
2020,01,13,12,19,4.80
2020,01,13,12,20,8.10
2020,01,13,12,21,4.80
2020,01,13,12,22,6.40
2020,01,13,12,23,1.60
2020,01,13,12,25,4.80
2020,01,13,12,26,4.80
2020,01,13,12,27,4.80
2020,01,13,12,28,8.10
2020,01,13,12,29,6.40
2020,01,13,12,30,6.40
2020,01,13,12,34,8.10
2020,01,13,12,35,6.40
2020,01,13,12,36,6.40
2020,01,13,12,37,4.80
2020,01,13,12,38,3.20
2020,01,13,12,39,6.40
2020,01,13,12,40,4.80
2020,01,13,12,41,3.20
2020,01,13,12,42,3.20
2020,01,13,12,43,3.20
2020,01,13,12,44,6.40
2020,01,13,12,45,3.20
2020,01,13,12,46,3.20
2020,01,13,12,47,1.60
2020,01,13,12,48,4.80
2020,01,13,12,49,4.80
2020,01,13,12,50,1.60
2020,01,13,12,52,3.20
2020,01,13,12,55,8.10
2020,01,13,12,56,1.60
2020,01,13,12,59,4.80
2020,01,13,13,00,1.60
2020,01,13,13,04,4.80
2020,01,13,13,05,1.60
2020,01,13,13,06,8.10
2020,01,13,13,07,6.40
2020,01,13,13,08,6.40
2020,01,13,13,09,3.20
2020,01,13,13,10,9.60
2020,01,13,13,11,3.20
2020,01,13,13,13,6.40
2020,01,13,13,14,4.80
2020,01,13,13,15,8.10
2020,01,13,13,16,1.60
2020,01,13,13,17,11.30
2020,01,13,13,18,4.80
2020,01,13,13,19,3.20
2020,01,13,13,21,1.60
2020,01,13,13,24,4.80
2020,01,13,13,25,6.40
2020,01,13,13,26,6.40
2020,01,13,13,32,4.80
2020,01,13,13,33,6.40
2020,01,13,13,34,8.10
2020,01,13,13,41,6.40
2020,01,13,13,42,1.60
2020,01,13,13,49,6.40
2020,01,13,13,50,4.80
2020,01,13,13,51,4.80
2020,01,13,13,52,9.60
2020,01,13,13,53,6.40
2020,01,13,13,55,8.10
2020,01,13,13,56,9.60
2020,01,13,13,57,8.10
2020,01,13,13,58,6.40
2020,01,13,13,59,4.80
2020,01,13,14,00,4.80
2020,01,13,14,03,4.80
2020,01,13,14,04,4.80
2020,01,13,14,27,4.80
2020,01,13,14,28,3.20
2020,01,13,14,29,4.80
2020,01,13,14,30,6.40
2020,01,13,14,31,6.40
2020,01,13,14,32,4.80
2020,01,13,14,35,4.80
2020,01,13,14,38,6.40
2020,01,13,14,39,4.80
2020,01,13,14,40,8.10
2020,01,13,14,41,6.40
2020,01,13,14,44,8.10
2020,01,13,14,45,8.10
2020,01,13,14,46,6.40
2020,01,13,14,54,4.80
2020,01,13,14,55,4.80
2020,01,13,14,56,4.80
2020,01,13,14,57,4.80
2020,01,13,14,58,6.40
2020,01,13,14,59,3.20
2020,01,13,15,01,6.40
2020,01,13,15,02,6.40
2020,01,13,15,03,3.20
2020,01,13,15,05,4.80
2020,01,13,15,06,1.60
2020,01,13,15,18,8.10
2020,01,13,15,19,4.80
2020,01,13,15,20,4.80
2020,01,13,15,37,6.40
2020,01,13,15,38,6.40
2020,01,13,15,39,1.60
2020,01,13,15,40,8.10
2020,01,13,15,41,4.80
2020,01,13,15,42,4.80
2020,01,13,15,43,4.80
2020,01,13,15,44,4.80
2020,01,13,15,45,4.80
2020,01,13,16,05,4.80
2020,01,13,16,06,6.40
2020,01,13,16,07,6.40
2020,01,13,16,08,6.40
2020,01,13,16,09,6.40
2020,01,13,16,10,6.40
2020,01,13,16,11,4.80
2020,01,13,16,12,3.20
2020,01,13,16,16,1.60
2020,01,13,16,17,4.80
2020,01,13,16,18,3.20
2020,01,13,20,08,3.20
2020,01,13,20,13,6.40
2020,01,13,20,14,4.80
2020,01,13,20,20,3.20
2020,01,13,20,21,6.40
2020,01,13,20,22,3.20
2020,01,13,20,25,14.50
2020,01,13,20,26,9.60
2020,01,13,20,27,3.20
2020,01,13,20,36,6.40
2020,01,13,23,04,6.40
2020,01,13,23,05,4.80
2020,01,13,23,16,3.20
2020,01,13,23,17,4.80
2020,01,13,23,31,6.40
2020,01,13,23,32,4.80
2020,01,13,23,33,3.20
2020,01,13,23,38,4.80
2020,01,13,23,52,3.20
2020,01,13,23,53,3.20
2020,01,13,23,54,1.60
